Latest Weather Observations for Mount Crawford

IDS60801

Issued at 12:21 am CDT Sunday 16 December 2018 (issued every 10 minutes, with the page automatically refreshed every 10 minutes)

About weather observations | Map of weather stations | Latest weather observations for SA | Other Formats
Station Details ID: 023878 Name: MOUNT CRAWFORD AWS Lat: -34.73 Lon: 138.93 Height: 525.0 m
Data from the previous 72 hours. | See also: Recent months at Mount Crawford
Date/Time
CDT
Temp
°C
App
Temp
°C
Dew
Point
°C
Rel
Hum
%
Delta-T
°C
Wind Press
QNH
hPa
Press
MSL
hPa
Rain since
9am
mm
Dir  Spd
km/h
Gust
km/h
Spd
kts
Gust
kts
16/12:00am 14.4 12.5 14.1 98 0.2 W 17 26 9 14 1005.8 1003.9 0.0
 
Date/Time
CDT
Temp
°C
App
Temp
°C
Dew
Point
°C
Rel
Hum
%
Delta-T
°C
Wind Press
QNH
hPa
Press
MSL
hPa
Rain since
9am
mm
Dir  Spd
km/h
Gust
km/h
Spd
kts
Gust
kts
15/11:30pm 14.4 12.8 13.9 97 0.3 WSW 15 19 8 10 1005.7 1003.8 0.0
15/11:00pm 14.4 12.8 13.8 96 0.3 W 15 20 8 11 1005.6 1003.7 0.0
15/10:30pm 14.3 12.1 13.3 94 0.6 W 17 22 9 12 1005.6 1003.7 0.0
15/10:00pm 14.5 12.4 12.4 87 1.2 W 15 19 8 10 1005.2 1003.3 0.0
15/09:30pm 15.1 13.5 11.7 80 1.9 W 11 15 6 8 1005.2 1003.3 0.0
15/09:00pm 15.7 13.6 11.3 75 2.4 SW 13 19 7 10 1005.3 1003.4 0.0
15/08:30pm 16.5 13.8 10.4 67 3.3 WSW 15 22 8 12 1005.0 1003.0 0.0
15/08:00pm 17.8 15.0 8.4 54 5.0 WSW 13 19 7 10 1004.7 1002.8 0.0
15/07:30pm 18.9 15.9 7.7 48 5.9 SW 13 22 7 12 1004.8 1002.9 0.0
15/07:00pm 20.0 16.8 8.4 47 6.2 WSW 15 24 8 13 1004.4 1002.5 0.0
15/06:30pm 19.9 15.9 8.9 49 6.0 WSW 20 32 11 17 1004.1 1002.2 0.0
15/06:00pm 20.5 15.7 7.5 43 6.9 W 22 33 12 18 1003.7 1001.8 0.0
15/05:30pm 22.2 17.8 7.2 38 8.0 WNW 20 26 11 14 1003.2 1001.2 0.0
15/05:00pm 21.2 18.2 10.7 51 5.9 W 17 28 9 15 1003.5 1001.6 0.0
15/04:30pm 22.0 20.0 11.4 51 6.1 NW 13 20 7 11 1003.9 1002.0 0.0
15/04:00pm 21.3 19.5 12.2 56 5.2 WSW 13 22 7 12 1004.2 1002.3 0.0
15/03:30pm 21.2 18.5 10.4 50 6.1 W 15 22 8 12 1004.3 1002.4 0.0
15/03:00pm 21.3 19.1 10.8 51 5.9 W 13 22 7 12 1004.7 1002.8 0.0
15/02:30pm 21.1 19.1 11.4 54 5.5 WSW 13 20 7 11 1005.1 1003.2 0.0
15/02:00pm 19.0 17.4 12.7 67 3.6 WSW 13 22 7 12 1005.5 1003.6 0.0
15/01:30pm 19.6 18.2 10.9 57 4.9 WSW 9 19 5 10 1005.7 1003.8 0.0
15/01:00pm 19.6 17.3 8.9 50 5.8 SW 11 17 6 9 1005.8 1003.9 0.0
15/12:30pm 19.7 18.0 11.2 58 4.8 W 11 15 6 8 1005.9 1004.0 0.0
15/12:00pm 19.1 16.9 10.9 59 4.6 W 13 20 7 11 1005.9 1004.0 0.0
15/11:30am 19.7 18.1 8.7 49 5.9 SW 7 11 4 6 1006.1 1004.2 0.0
15/11:00am 20.1 17.5 7.8 45 6.5 ENE 11 19 6 10 1006.3 1004.4 0.0
15/10:30am 20.0 17.2 7.1 43 6.8 NE 11 19 6 10 1006.3 1004.4 0.0
15/10:00am 19.0 15.9 8.9 52 5.4 NE 15 24 8 13 1006.6 1004.7 0.0
15/09:30am 17.9 16.1 10.8 63 3.9 ENE 11 17 6 9 1006.6 1004.7 0.0
15/09:00am 17.4 16.0 11.0 66 3.6 ENE 9 13 5 7 1006.7 1004.9 2.0
15/08:30am 16.3 15.5 13.0 81 1.9 E 9 13 5 7 1006.3 1004.4 2.0
15/08:00am 14.4 14.7 14.4 100 0.0 SE 6 7 3 4 1006.0 1004.1 2.0
15/07:30am 13.1 12.7 13.1 100 0.0 SSW 7 9 4 5 1005.9 1004.0 2.0
15/07:00am 12.5 11.6 12.5 100 0.0 WSW 9 15 5 8 1005.6 1003.7 2.0
15/06:30am 12.3 10.9 12.3 100 0.0 E 11 15 6 8 1005.5 1003.6 2.0
15/06:00am 12.2 12.1 12.2 100 0.0 ESE 4 9 2 5 1005.5 1003.6 2.0
15/05:30am 12.2 11.2 12.2 100 0.0 ESE 9 13 5 7 1005.1 1003.2 2.0
15/05:00am 12.4 10.7 12.4 100 0.0 SSE 13 17 7 9 1004.7 1002.8 2.0
15/04:30am 12.7 9.9 12.7 100 0.0 ESE 19 24 10 13 1004.6 1002.7 2.0
15/04:00am 12.8 9.9 12.8 100 0.0 ESE 20 26 11 14 1004.5 1002.6 2.0
15/03:30am 12.6 9.8 12.6 100 0.0 ESE 19 26 10 14 1004.6 1002.7 2.0
15/03:00am 12.5 8.7 12.5 100 0.0 SSE 24 32 13 17 1005.2 1003.3 2.0
15/02:30am 12.3 9.2 12.3 100 0.0 SSE 20 26 11 14 1005.3 1003.4 2.0
15/02:00am 12.4 9.5 12.4 100 0.0 SSE 19 26 10 14 1005.3 1003.4 2.0
15/01:30am 12.5 9.7 12.5 100 0.0 SSE 19 26 10 14 1005.7 1003.8 2.0
15/01:00am 12.6 10.2 12.6 100 0.0 S 17 24 9 13 1005.7 1003.8 2.0
15/12:30am 12.8 10.4 12.8 100 0.0 S 17 26 9 14 1006.3 1004.4 2.0
15/12:00am 12.9 10.0 12.9 100 0.0 S 20 30 11 16 1006.4 1004.5 2.0
 
Date/Time
CDT
Temp
°C
App
Temp
°C
Dew
Point
°C
Rel
Hum
%
Delta-T
°C
Wind Press
QNH
hPa
Press
MSL
hPa
Rain since
9am
mm
Dir  Spd
km/h
Gust
km/h
Spd
kts
Gust
kts
14/11:30pm 13.0 9.7 12.7 98 0.2 SSE 22 32 12 17 1006.4 1004.5 2.0
14/11:00pm 13.2 9.6 12.9 98 0.2 SSE 24 35 13 19 1006.7 1004.9 2.0
14/10:30pm 13.2 9.3 13.2 100 0.0 S 26 35 14 19 1006.8 1005.0 2.0
14/10:04pm 13.3 9.0 13.3 100 0.0 SSE 28 46 15 25 1006.8 1005.0 2.0
14/10:00pm 13.3 10.2 13.3 100 0.0 SSE 22 33 12 18 1006.8 1005.0 2.0
14/09:30pm 13.5 8.5 13.5 100 0.0 S 32 43 17 23 1006.3 1004.4 2.0
14/09:00pm 13.8 10.4 13.8 100 0.0 S 24 41 13 22 1005.9 1004.0 2.0
14/08:30pm 13.8 10.0 13.6 99 0.1 S 26 39 14 21 1005.6 1003.7 2.0
14/08:00pm 13.7 9.5 13.4 98 0.2 S 28 37 15 20 1005.3 1003.4 2.0
14/07:30pm 14.1 9.7 14.1 100 0.0 S 30 44 16 24 1005.4 1003.5 2.0
14/07:00pm 14.0 10.0 14.0 100 0.0 S 28 35 15 19 1004.8 1002.9 2.0
14/06:30pm 13.8 9.3 13.8 100 0.0 S 30 43 16 23 1004.7 1002.8 1.4
14/06:00pm 13.7 9.6 13.7 100 0.0 SSW 28 46 15 25 1004.2 1002.3 1.4
14/05:30pm 14.1 9.2 13.8 98 0.2 SSW 32 54 17 29 1004.0 1002.1 1.2
14/05:17pm 14.6 9.6 14.0 96 0.3 S 33 52 18 28 1004.1 1002.2 1.2
14/05:00pm 14.9 10.8 13.9 94 0.6 SSW 28 43 15 23 1003.8 1001.9 1.2
14/04:30pm 15.5 10.5 13.9 90 0.9 S 33 54 18 29 1003.7 1001.8 1.2
14/04:16pm 15.7 10.7 14.1 90 0.9 SSW 33 52 18 28 1003.4 1001.5 1.2
14/04:00pm 16.1 11.6 13.9 87 1.3 S 30 43 16 23 1003.8 1001.9 1.2
14/03:34pm 17.4 12.1 13.1 76 2.5 S 33 52 18 28 1003.7 1001.8 1.2
14/03:30pm 17.6 12.8 12.9 74 2.7 S 30 46 16 25 1003.8 1001.9 1.2
14/03:00pm 17.8 12.3 12.5 71 3.0 S 33 46 18 25 1003.8 1001.9 1.2
14/02:30pm 18.4 14.8 13.1 71 3.1 SSE 24 43 13 23 1004.0 1002.1 1.2
14/02:00pm 17.7 12.2 12.4 71 3.0 SSE 33 46 18 25 1003.9 1002.0 1.2
14/01:30pm 17.6 13.2 14.1 80 2.1 S 30 44 16 24 1003.8 1001.9 1.2
14/01:00pm 16.0 11.2 12.9 82 1.8 SSE 30 44 16 24 1004.1 1002.2 1.2
14/12:30pm 17.5 11.2 12.4 72 2.9 S 37 57 20 31 1003.9 1002.0 1.2
14/12:11pm 16.7 11.0 11.2 70 3.0 S 32 50 17 27 1003.5 1001.6 1.2
14/12:00pm 16.8 11.3 12.3 75 2.6 SSE 33 50 18 27 1003.9 1002.0 1.2
14/11:51am 16.5 11.4 10.6 68 3.2 S 28 46 15 25 1004.0 1002.1 1.2
14/11:30am 16.1 11.4 11.9 76 2.4 S 28 39 15 21 1003.8 1001.9 1.2
14/11:00am 14.5 9.4 10.5 77 2.2 S 28 46 15 25 1003.7 1001.8 1.2
14/10:43am 14.1 8.8 9.9 76 2.2 S 28 48 15 26 1003.4 1001.5 1.2
14/10:30am 14.0 9.7 10.6 80 1.8 S 24 32 13 17 1003.7 1001.8 1.2
14/10:00am 13.1 8.8 13.1 100 0.0 SE 28 39 15 21 1004.1 1002.2 1.2
14/09:30am 12.6 8.1 12.6 100 0.0 SE 28 48 15 26 1003.7 1001.8 1.2
14/09:27am 12.6 8.5 12.6 100 0.0 SSE 26 48 14 26 1003.6 1001.7 1.2
14/09:00am 13.3 9.4 13.3 100 0.0 S 26 39 14 21 1003.2 1001.2 6.0
14/08:30am 12.6 7.7 12.6 100 0.0 SSW 30 44 16 24 1002.7 1000.8 5.2
14/08:11am 12.4 7.5 12.4 100 0.0 SSW 30 48 16 26 1002.4 1000.5 5.0
14/08:00am 12.3 6.8 12.3 100 0.0 SSW 33 48 18 26 1002.3 1000.4 4.8
14/07:35am 12.0 6.4 12.0 100 0.0 SSW 33 54 18 29 1002.1 1000.2 4.4
14/07:30am 12.0 6.5 12.0 100 0.0 SSW 32 48 17 26 1002.3 1000.4 4.4
14/07:03am 11.7 6.5 11.7 100 0.0 SSW 30 50 16 27 1002.0 1000.1 4.2
14/07:00am 11.7 6.9 11.7 100 0.0 SSW 28 43 15 23 1002.2 1000.3 4.2
14/06:30am 11.2 5.5 11.2 100 0.0 SW 32 48 17 26 1002.0 1000.1 4.0
14/06:00am 10.6 4.7 10.6 100 0.0 SW 32 65 17 35 1001.9 1000.0 3.8
14/05:42am 10.3 5.1 10.3 100 0.0 SW 28 52 15 28 1001.7 999.8 3.8
14/05:30am 10.0 5.5 10.0 100 0.0 WSW 24 43 13 23 1001.8 999.9 3.8
14/05:00am 9.8 4.1 9.8 100 0.0 WSW 30 44 16 24 1002.1 1000.2 3.4
14/04:30am 9.5 4.1 9.5 100 0.0 WSW 28 48 15 26 1002.2 1000.3 3.2
14/04:00am 9.3 3.8 9.3 100 0.0 WSW 28 39 15 21 1002.7 1000.8 2.8
14/03:30am 9.2 3.7 9.2 100 0.0 WSW 28 46 15 25 1003.2 1001.2 2.4
14/03:25am 9.2 3.7 9.2 100 0.0 WSW 28 46 15 25 1003.2 1001.2 2.4
14/03:00am 9.1 3.6 9.1 100 0.0 WSW 28 44 15 24 1003.7 1001.8 2.4
14/02:30am 8.9 2.9 8.8 99 0.1 WSW 30 44 16 24 1004.1 1002.2 2.2
14/02:00am 8.8 3.2 8.7 99 0.1 WSW 28 46 15 25 1004.8 1002.9 2.2
14/01:37am 8.6 2.5 8.3 98 0.1 WSW 30 48 16 26 1005.2 1003.3 2.0
14/01:30am 8.5 2.4 8.1 97 0.2 WSW 30 46 16 25 1005.4 1003.5 2.0
14/01:00am 8.4 1.7 7.5 94 0.4 WSW 32 52 17 28 1005.8 1003.9 2.0
14/12:30am 8.5 2.1 7.0 90 0.7 WSW 30 50 16 27 1006.2 1004.3 2.0
14/12:00am 9.1 2.0 6.2 82 1.4 WSW 33 56 18 30 1006.5 1004.6 2.0
 
Date/Time
CDT
Temp
°C
App
Temp
°C
Dew
Point
°C
Rel
Hum
%
Delta-T
°C
Wind Press
QNH
hPa
Press
MSL
hPa
Rain since
9am
mm
Dir  Spd
km/h
Gust
km/h
Spd
kts
Gust
kts
13/11:30pm 9.0 1.9 5.7 80 1.6 WSW 32 61 17 33 1006.6 1004.7 2.0
13/11:05pm 8.7 2.5 6.2 84 1.2 WSW 28 46 15 25 1007.3 1005.4 2.0
13/11:00pm 8.6 2.8 6.4 86 1.0 WSW 26 43 14 23 1007.5 1005.6 2.0
13/10:30pm 8.2 2.9 6.8 91 0.7 SW 24 39 13 21 1008.1 1006.2 2.0
13/10:00pm 8.1 2.0 6.6 90 0.7 WSW 28 43 15 23 1008.2 1006.3 2.0
13/09:30pm 8.9 3.0 5.6 80 1.5 SW 26 41 14 22 1008.4 1006.6 2.0
13/09:00pm 8.6 2.3 5.5 81 1.4 SW 28 48 15 26 1008.5 1006.7 2.0
13/08:31pm 8.8 2.3 4.8 76 1.8 SW 28 48 15 26 1008.4 1006.6 2.0
13/08:30pm 8.8 2.7 4.6 75 1.9 WSW 26 43 14 23 1008.4 1006.6 2.0
13/08:10pm 9.0 2.5 4.8 75 1.9 SW 28 46 15 25 1008.4 1006.6 2.0
13/08:00pm 9.4 2.9 4.6 72 2.2 SW 28 44 15 24 1008.6 1006.8 2.0
13/07:30pm 9.7 3.6 4.9 72 2.2 SW 26 43 14 23 1008.4 1006.6 2.0
13/07:13pm 9.8 2.9 4.6 70 2.4 SW 30 48 16 26 1008.1 1006.2 2.0
13/07:00pm 9.8 4.0 4.6 70 2.4 SW 24 43 13 23 1008.1 1006.2 2.0
13/06:30pm 10.8 3.4 4.0 63 3.1 SW 32 52 17 28 1007.6 1005.7 2.0
13/06:20pm 10.9 2.8 3.2 59 3.5 SW 35 63 19 34 1007.3 1005.4 2.0
13/06:17pm 10.7 2.5 2.8 58 3.5 SW 35 63 19 34 1007.1 1005.2 2.0
13/06:00pm 10.6 2.5 3.2 60 3.3 WSW 35 56 19 30 1007.3 1005.4 2.0
13/05:30pm 11.2 3.4 2.8 56 3.8 SW 33 61 18 33 1007.2 1005.3 2.0
13/05:03pm 10.9 4.1 5.0 67 2.8 SW 30 59 16 32 1007.3 1005.4 2.0
13/05:00pm 9.8 2.6 4.8 71 2.3 SW 32 43 17 23 1007.3 1005.4 2.0
13/04:30pm 9.4 2.4 6.1 80 1.6 SW 32 50 17 27 1007.5 1005.6 1.8
13/04:00pm 10.4 4.5 7.3 81 1.5 SW 28 48 15 26 1007.3 1005.4 1.6
13/03:30pm 10.9 3.7 5.0 67 2.8 SW 32 50 17 27 1007.0 1005.1 0.4
13/03:00pm 10.4 2.2 4.5 67 2.7 SSW 37 59 20 32 1007.1 1005.2 0.4
13/02:32pm 10.7 3.8 6.5 75 2.0 SW 32 50 17 27 1007.2 1005.3 0.4
13/02:30pm 11.1 4.0 6.6 74 2.2 SW 33 50 18 27 1007.2 1005.3 0.4
13/02:00pm 10.4 2.6 5.0 69 2.5 WSW 35 61 19 33 1006.7 1004.9 0.4
13/01:30pm 10.1 3.9 6.3 77 1.8 SW 28 46 15 25 1007.2 1005.3 0.4
13/01:00pm 11.8 4.1 5.4 65 3.0 WSW 35 56 19 30 1006.6 1004.7 0.2
13/12:41pm 11.3 4.1 5.2 66 2.9 SW 32 50 17 27 1006.6 1004.7 0.2
13/12:30pm 11.5 4.2 5.4 66 2.9 SW 33 48 18 26 1006.7 1004.9 0.2
13/12:00pm 10.1 1.7 5.5 73 2.2 SW 39 57 21 31 1006.5 1004.6 0.2
13/11:30am 12.1 6.0 6.6 69 2.7 SW 28 54 15 29 1006.6 1004.7 0.2
13/11:03am 9.9 2.6 4.7 70 2.4 SW 32 57 17 31 1006.7 1004.9 0.2
13/11:00am 10.1 3.2 4.5 68 2.6 SW 30 46 16 25 1006.6 1004.7 0.2
13/10:32am 11.5 4.8 5.6 67 2.8 WSW 30 52 16 28 1006.2 1004.3 0.2
13/10:30am 11.8 5.1 5.7 66 2.9 WSW 30 46 16 25 1006.3 1004.4 0.2
13/10:00am 8.8 0.3 5.2 78 1.7 SW 39 61 21 33 1006.2 1004.3 0.2
13/09:30am 11.1 3.7 4.1 62 3.2 SW 32 52 17 28 1006.3 1004.4 0.0
13/09:00am 11.1 3.3 4.8 65 3.0 WSW 35 59 19 32 1006.1 1004.2 3.8
13/08:30am 10.4 2.7 5.2 70 2.4 WSW 35 67 19 36 1005.6 1003.7 3.8
13/08:00am 10.1 3.2 6.6 79 1.7 SW 32 54 17 29 1005.6 1003.7 3.8
13/07:30am 9.5 2.9 7.8 89 0.8 WSW 32 50 17 27 1005.6 1003.7 3.8
13/07:19am 9.6 3.5 8.2 91 0.7 WSW 30 48 16 26 1005.8 1003.9 3.8
13/07:00am 9.4 4.2 8.9 97 0.3 SW 26 39 14 21 1005.7 1003.8 3.8
13/06:30am 10.0 4.7 9.9 99 0.1 SW 28 54 15 29 1005.5 1003.6 3.8
13/06:00am 10.8 5.8 10.8 100 0.0 SW 28 50 15 27 1004.5 1002.6 3.4
13/05:56am 10.9 5.9 10.9 100 0.0 SW 28 50 15 27 1004.4 1002.5 3.4
13/05:30am 11.5 7.8 11.5 100 0.0 WSW 22 39 12 21 1004.1 1002.2 2.6
13/05:00am 11.9 8.9 11.9 100 0.0 SW 19 33 10 18 1004.1 1002.2 1.8
13/04:30am 12.3 9.2 12.3 100 0.0 WSW 20 30 11 16 1004.0 1002.1 1.6
13/04:00am 12.5 8.7 12.5 100 0.0 WSW 24 37 13 20 1004.0 1002.1 1.6
13/03:32am 12.8 8.4 12.8 100 0.0 WSW 28 46 15 25 1003.9 1002.0 1.6
13/03:30am 12.8 8.7 12.8 100 0.0 WSW 26 46 14 25 1003.8 1001.9 1.6
13/03:00am 13.4 10.2 13.2 99 0.1 WSW 22 33 12 18 1003.9 1002.0 1.4
13/02:30am 13.7 11.9 13.4 98 0.2 WSW 15 22 8 12 1004.2 1002.3 1.4
13/02:00am 13.9 11.2 13.6 98 0.2 WSW 20 28 11 15 1004.5 1002.6 1.4
13/01:30am 14.4 11.9 14.1 98 0.2 WSW 20 32 11 17 1005.0 1003.0 1.0
13/01:00am 14.5 12.6 14.3 99 0.1 WSW 17 28 9 15 1004.7 1002.8 0.4
13/12:30am 14.8 12.6 14.5 98 0.2 WSW 19 33 10 18 1004.5 1002.6 0.4

Other Formats:

Comma delimited format used in spreadsheet applications
http://www.bom.gov.au/fwo/IDS60801/IDS60801.94678.axf

JavaScript Object Notation format (JSON) in row-major order
http://www.bom.gov.au/fwo/IDS60801/IDS60801.94678.json